Change the Weather History Date:

Sunday, October 6, 2013

  Actual Average Record
Temperature  
Mean Temperature 82 °F -  
Max Temperature 88 °F 85 °F 90 °F (2003)
Min Temperature 75 °F 74 °F 73 °F (2007)
Cooling Degree Days 16    
Growing Degree Days 32 (Base 50)    
Moisture  
Dew Point 76 °F    
Average Humidity 84    
Maximum Humidity 97    
Minimum Humidity 67    
Precipitation  
Precipitation 0.00 in - - ()
Sea Level Pressure  
Sea Level Pressure 29.95 in    
Wind  
Wind Speed 3 mph (South)    
Max Wind Speed 9 mph    
Max Gust Speed -    
Visibility 10 miles    
Events Rain    
Averages and records for this station are not official NWS values.
T = Trace of Precipitation, MM = Missing Value Source: NWS Daily Summary

Daily Weather History Graph

Daily Weather History Graph

Search for Another Location

Airport or City:

Trip Planner

Search our weather history database for the weather conditions in past years. The results will help you decide how hot, cold, wet, or windy it might be!

Date:

Astronomy

Oct. 06, 2013 Rise Set
Actual Time 6:14 AM AST 6:06 PM AST
Civil Twilight 5:52 AM AST 6:28 PM AST
Nautical Twilight 5:26 AM AST 6:53 PM AST
Astronomical Twilight 5:01 AM AST 7:19 PM AST
Moon 7:36 AM AST (10/6) 7:24 PM AST (10/6)
Length of Visible Light 12h 36m
Length of Day
11h 52m
Waxing Crescent, 3% of the Moon is Illuminated
Oct 6
Waxing Crescent
Oct 11
First Quarter
Oct 18
Full
Oct 26
Last Quarter
Nov 3
New

Hourly Weather History & Observations

Time (AST) Temp. Heat Index Dew Point Humidity Pressure Visibility Wind Dir Wind Speed Gust Speed Precip Events Conditions
12:53 AM 77.0 °F - 75.0 °F 94% 29.96 in 10.0 mi Calm Calm - N/A   Clear
1:53 AM 77.0 °F - 75.0 °F 94% 29.94 in 10.0 mi WSW 3.5 mph - N/A   Clear
2:53 AM 77.0 °F - 75.0 °F 94% 29.92 in 10.0 mi WSW 3.5 mph - N/A   Clear
3:53 AM 75.9 °F - 75.0 °F 97% 29.90 in 10.0 mi Calm Calm - N/A   Clear
4:53 AM 77.0 °F - 75.0 °F 94% 29.91 in 10.0 mi Calm Calm - N/A   Clear
5:53 AM 77.0 °F - 75.0 °F 94% 29.92 in 10.0 mi Calm Calm - N/A   Clear
6:53 AM 78.1 °F - 75.9 °F 93% 29.94 in 10.0 mi Calm Calm - N/A   Clear
7:53 AM 82.9 °F 91.8 °F 77.0 °F 82% 29.96 in 10.0 mi Calm Calm - N/A   Clear
8:53 AM 84.0 °F 92.6 °F 75.9 °F 76% 29.98 in 10.0 mi Calm Calm - N/A   Partly Cloudy
9:53 AM 87.1 °F 96.3 °F 75.0 °F 67% 30.00 in 10.0 mi SE 5.8 mph - N/A   Clear
10:53 AM 88.0 °F 100.2 °F 77.0 °F 70% 29.99 in 10.0 mi South 6.9 mph - N/A   Clear
11:53 AM 88.0 °F 100.2 °F 77.0 °F 70% 29.97 in 10.0 mi SSE 4.6 mph - N/A   Clear
12:53 PM 88.0 °F 101.3 °F 78.1 °F 72% 29.94 in 10.0 mi SSE 8.1 mph - N/A   Clear
1:53 PM 88.0 °F 100.2 °F 77.0 °F 70% 29.91 in 10.0 mi SE 8.1 mph - N/A   Scattered Clouds
2:53 PM 88.0 °F 100.2 °F 77.0 °F 70% 29.90 in 10.0 mi South 9.2 mph - N/A   Clear
3:53 PM 87.1 °F 98.8 °F 77.0 °F 72% 29.90 in 10.0 mi South 8.1 mph - N/A   Clear
4:53 PM 86.0 °F 98.3 °F 78.1 °F 77% 29.91 in 10.0 mi SSE 8.1 mph - N/A   Clear
5:53 PM 84.0 °F 92.6 °F 75.9 °F 76% 29.92 in 10.0 mi SSE 5.8 mph - N/A   Partly Cloudy
6:53 PM 84.0 °F 93.7 °F 77.0 °F 79% 29.94 in 10.0 mi SW 3.5 mph - N/A   Partly Cloudy
7:53 PM 82.9 °F 91.8 °F 77.0 °F 82% 29.96 in 10.0 mi Calm Calm - N/A   Clear
8:53 PM 80.1 °F 85.8 °F 77.0 °F 90% 29.99 in 10.0 mi Calm Calm - N/A   Clear
9:53 PM 79.0 °F - 77.0 °F 94% 29.99 in 10.0 mi Calm Calm - N/A   Scattered Clouds
10:53 PM 80.1 °F 85.8 °F 77.0 °F 90% 29.99 in 10.0 mi Variable 4.6 mph - N/A   Scattered Clouds
11:09 PM 78.8 °F - 75.2 °F 89% 29.99 in 10.0 mi North 6.9 mph - N/A   Mostly Cloudy
11:26 PM 78.8 °F - 77.0 °F 94% 29.98 in 7.0 mi NNW 3.5 mph - 0.00 in Rain Light Rain
11:53 PM 78.1 °F - 77.0 °F 96% 29.98 in 10.0 mi NW 3.5 mph - 0.00 in   Partly Cloudy